Stations météo

réclame
Mon MeteoGroup
Harstena, Suède (2563): Température de l'air & dewpoint: 11.12.2018 20:00:00 - 17.12.2018 20:00:00 (CET)Harstena, Suède (2563): Vitesse du vent & gusts: 11.12.2018 20:00:00 - 17.12.2018 20:00:00 (CET)Harstena, Suède (2563): Direction du vent: 11.12.2018 20:00:00 - 17.12.2018 20:00:00 (CET)Harstena, Suède (2563): reduced air pressure: 11.12.2018 20:00:00 - 17.12.2018 20:00:00 (CET)Harstena, Suède (2563): visibility: 11.12.2018 20:00:00 - 17.12.2018 20:00:00 (CET)Harstena, Suède (2563): Quantités de précipitations: 11.12.2018 20:00:00 - 17.12.2018 20:00:00 (CET)
Date & Time tt [°C] td [°C] ff [km/h] ff [knt] fx [km/h] fx [knt] dd ppp [hPa] vv [km] rr [mm]
17.12.2018 20:00:00 -1,7 -2,8 0 0 0 0 N 1023,6 27 0,0
17.12.2018 19:00:00 -1,4 -2,7 0 0 0 0 N 1023,1 34 0,0
17.12.2018 18:00:00 -1,6 -2,7 0 0 0 0 N 1022,8 33 0,0
17.12.2018 17:00:00 -1,3 -2,4 0 0 0 0 N 1022,1 42 0,0
17.12.2018 16:00:00 -1,1 -2,5 0 0 0 0 N 1021,7 50 0,0
17.12.2018 15:00:00 -0,9 -2,5 0 0 0 0 N 1021,3 50 0,0
17.12.2018 14:00:00 -0,6 -2,2 0 0 0 0 N 1020,8 50 0,0
17.12.2018 13:00:00 -0,9 -2,3 0 0 0 0 N 1020,6 50 -
17.12.2018 12:00:00 -0,7 -1,7 0 0 0 0 N 1020,1 20 0,0
17.12.2018 11:00:00 -0,3 -1,7 0 0 0 0 N 1019,9 50 0,0
17.12.2018 10:00:00 -0,3 -1,6 0 0 0 0 N 1019,6 50 0,0
17.12.2018 09:00:00 -0,4 -1,1 0 0 0 0 N 1018,9 50 0,0
17.12.2018 08:00:00 -1,1 -1,4 0 0 0 0 N 1018,3 44 0,0
17.12.2018 07:00:00 -1,2 -1,4 0 0 18 10 N 1017,5 6 0,0
17.12.2018 06:00:00 -0,5 -0,8 9 5 18 10 SSW 1016,8 2,7 0,0
17.12.2018 05:00:00 - - - - 15 8 - - - -
17.12.2018 04:00:00 - - - - 10 5 - - - -
17.12.2018 03:00:00 0,4 0,1 6 3 18 10 SW 1015,9 50 0,0
17.12.2018 02:00:00 0,4 0,1 5 3 27 14 SW 1015,7 22 1,3
17.12.2018 01:00:00 0,6 0,3 12 6 27 14 SSE 1015,8 2,5 1,0
17.12.2018 00:00:00 1,0 0,7 15 8 32 17 SSE 1016,0 5 0,2
16.12.2018 23:00:00 0,6 0,3 16 8 33 18 SE 1016,4 21 1,1
16.12.2018 22:00:00 0,9 0,8 19 10 33 18 SE 1016,7 5 0,4
16.12.2018 21:00:00 0,8 0,5 19 10 32 17 SE 1017,4 3,7 0,5
16.12.2018 20:00:00 0,6 0,3 17 9 41 22 SE 1017,7 3,6 0,4
16.12.2018 19:00:00 0,8 0,5 21 12 44 24 SE 1018,4 8 0,4
16.12.2018 18:00:00 0,8 0,5 26 14 44 24 SE 1019,1 2,2 0,3
16.12.2018 17:00:00 1,1 0,5 27 15 40 21 SE 1019,6 4,4 0,2
16.12.2018 16:00:00 0,8 0,4 27 15 40 21 ESE 1020,3 3,2 0,3
16.12.2018 15:00:00 1,3 0,7 27 15 40 21 ESE 1021,2 6 0,2
16.12.2018 14:00:00 1,6 0,9 28 15 41 22 ESE 1021,7 8 0,2
16.12.2018 13:00:00 1,6 0,7 26 14 41 22 ESE 1022,6 8 0,1
16.12.2018 12:00:00 1,8 -0,1 25 14 40 21 SE 1023,4 19 0,1
16.12.2018 11:00:00 1,3 -0,2 20 11 41 22 SE 1024,8 14 0,0
16.12.2018 10:00:00 1,4 0,5 23 12 41 22 SE 1025,3 7 0,1
16.12.2018 09:00:00 1,3 0,7 20 11 34 18 SE 1025,6 25 0,0
16.12.2018 08:00:00 1,1 0,5 20 11 34 18 SE 1025,9 6 0,1
16.12.2018 07:00:00 1,0 0,6 17 9 37 20 SE 1026,2 6 0,3
16.12.2018 06:00:00 1,4 0,8 20 11 37 20 SE 1026,6 7 0,2
16.12.2018 05:00:00 2,0 0,8 22 12 40 21 SE 1027,2 35 0,0
16.12.2018 04:00:00 2,0 1,1 21 11 39 21 SE 1028,0 33 0,2
16.12.2018 03:00:00 2,1 1,2 24 13 36 19 ESE 1028,9 6 0,2
16.12.2018 02:00:00 2,0 0,8 21 12 35 19 E 1029,5 6 0,0
16.12.2018 01:00:00 1,7 0,1 21 12 34 18 E 1030,2 23 0,0
16.12.2018 00:00:00 2,2 -1,2 19 10 29 16 E 1030,8 50 0,0
15.12.2018 23:00:00 2,3 -1,7 20 11 32 17 E 1031,3 50 0,0
15.12.2018 22:00:00 - - - - 34 18 - - - -
15.12.2018 21:00:00 2,3 -0,6 21 12 34 18 ESE 1032,2 50 -
15.12.2018 20:00:00 2,2 -2,0 13 7 19 10 E 1032,7 50 0,0
15.12.2018 19:00:00 1,6 -3,7 5 3 26 14 NNE 1033,2 50 0,0
15.12.2018 18:00:00 1,9 -3,4 13 7 27 15 E 1033,5 50 0,0
15.12.2018 17:00:00 2,0 -2,7 18 10 27 15 E 1033,6 50 0,0
15.12.2018 16:00:00 2,1 -2,6 16 9 25 14 E 1033,9 50 0,0
15.12.2018 15:00:00 1,7 -3,6 6 3 21 11 NE 1034,3 50 0,0
15.12.2018 14:00:00 1,7 -2,1 8 5 21 11 NE 1034,4 50 0,0
15.12.2018 13:00:00 1,7 -2,6 9 5 22 12 NE 1034,6 50 0,0
15.12.2018 12:00:00 1,7 -3,0 13 7 23 12 E 1034,9 50 0,0
15.12.2018 11:00:00 1,6 -1,6 11 6 23 12 E 1035,3 50 0,0
15.12.2018 10:00:00 1,4 -1,7 8 5 24 13 ENE 1035,4 50 0,0
15.12.2018 09:00:00 1,5 -2,1 12 6 24 13 ESE 1035,1 44 0,0
15.12.2018 08:00:00 1,2 -2,7 11 6 29 16 E 1034,9 44 0,0
15.12.2018 07:00:00 1,2 -2,2 11 6 29 16 E 1034,7 42 0,0
15.12.2018 06:00:00 1,1 -2,0 20 11 32 17 E 1034,5 44 0,0
15.12.2018 05:00:00 1,3 -1,1 19 10 32 17 E 1034,4 33 0,0
15.12.2018 04:00:00 1,3 -0,9 15 8 22 12 E 1034,3 48 0,2
15.12.2018 03:00:00 0,9 0,5 7 4 22 12 NNE 1034,6 19 0,0
15.12.2018 02:00:00 0,6 0,2 7 4 26 14 N 1034,5 26 0,2
15.12.2018 01:00:00 0,8 0,5 14 8 29 16 NNE 1034,2 19 0,0
15.12.2018 00:00:00 0,4 0,1 13 7 29 15 NNE 1034,4 8 0,2
14.12.2018 23:00:00 0,5 0,1 15 8 22 12 N 1034,4 20 0,0
14.12.2018 22:00:00 0,2 -0,1 8 5 24 13 N 1034,6 6 1,2
14.12.2018 21:00:00 0,3 -0,1 6 4 24 13 NNE 1034,5 1,5 1,5
14.12.2018 20:00:00 1,0 0,6 10 6 25 13 NNE 1034,0 28 0,1
14.12.2018 19:00:00 0,5 0,1 12 6 27 14 NNE 1034,0 2,8 0,3
14.12.2018 18:00:00 1,1 0,5 13 7 29 15 NE 1034,0 34 0,3
14.12.2018 17:00:00 0,8 0,3 14 8 29 16 NE 1034,0 8 0,3
14.12.2018 16:00:00 0,4 0,0 16 9 29 15 NNE 1033,8 4,9 0,3
14.12.2018 15:00:00 0,3 -0,1 17 9 31 17 NNE 1033,7 3,8 0,2
14.12.2018 14:00:00 0,6 -0,1 16 9 31 17 NNE 1033,4 3,3 0,1
14.12.2018 13:00:00 1,0 0,3 13 7 33 18 NE 1033,0 8 0,1
14.12.2018 12:00:00 1,0 0,0 17 9 33 18 NNE 1032,8 5 0,0
14.12.2018 11:00:00 1,3 -0,5 19 10 37 20 NNE 1033,2 46 -
14.12.2018 10:00:00 1,3 -0,2 18 10 39 21 NNE 1033,2 50 -
14.12.2018 09:00:00 1,3 0,0 17 9 40 22 NNE 1032,8 50 0,0
14.12.2018 08:00:00 1,1 -0,2 21 11 40 22 NNE 1032,5 50 0,0
14.12.2018 07:00:00 1,2 0,5 18 10 37 20 NNE 1032,2 13 0,1
14.12.2018 06:00:00 0,9 0,5 18 10 39 21 NNE 1032,0 10 0,1
14.12.2018 05:00:00 1,1 0,5 20 11 39 21 NNE 1032,0 16 0,0
14.12.2018 04:00:00 1,5 0,9 18 10 36 19 NNE 1031,8 13 0,0
14.12.2018 03:00:00 2,0 1,1 16 9 33 18 NNE 1031,9 23 0,1
14.12.2018 02:00:00 2,5 1,8 18 10 40 22 ENE 1031,9 10 0,7
14.12.2018 01:00:00 1,5 1,1 21 12 40 22 NNE 1031,8 4,9 0,2
14.12.2018 00:00:00 1,3 0,9 20 11 41 22 NNE 1031,6 8 0,5
13.12.2018 23:00:00 1,3 0,7 21 12 44 24 NNE 1031,6 6 0,3
13.12.2018 22:00:00 1,8 0,5 25 13 44 24 NNE 1031,5 10 0,0
13.12.2018 21:00:00 2,4 0,8 24 13 39 21 NNE 1031,3 42 0,0
13.12.2018 20:00:00 2,4 0,9 19 11 38 20 NNE 1031,0 31 0,0
13.12.2018 19:00:00 2,2 0,6 22 12 41 22 NNE 1030,9 37 0,0
13.12.2018 18:00:00 1,9 0,0 22 12 41 22 NNE 1031,0 50 0,0
13.12.2018 17:00:00 1,9 0,0 22 12 40 22 NNE 1031,0 50 0,0
13.12.2018 16:00:00 2,2 0,3 23 12 46 25 NE 1031,1 50 0,0
13.12.2018 15:00:00 2,1 0,2 21 11 46 25 NNE 1031,0 50 0,0
13.12.2018 14:00:00 2,0 -0,4 23 12 40 22 NNE 1031,0 50 0,0
13.12.2018 13:00:00 1,7 -0,4 21 12 40 22 NNE 1030,9 50 0,0
13.12.2018 12:00:00 1,7 -0,9 22 12 43 23 NNE 1031,1 50 0,0
13.12.2018 11:00:00 1,6 -0,8 24 13 43 23 NNE 1031,5 50 0,0
13.12.2018 10:00:00 1,6 -1,0 21 11 45 24 NNE 1031,7 40 0,0
13.12.2018 09:00:00 1,6 -0,8 23 12 45 24 NNE 1031,7 50 0,0
13.12.2018 08:00:00 1,4 -0,5 25 14 40 22 NNE 1031,6 31 0,0
13.12.2018 07:00:00 1,7 -0,6 22 12 39 21 N 1031,4 50 0,0
13.12.2018 06:00:00 1,8 -0,3 19 10 40 22 NNE 1031,5 50 0,0
13.12.2018 05:00:00 1,7 -0,1 24 13 40 22 NNE 1031,5 50 0,0
13.12.2018 04:00:00 2,1 -0,3 19 11 40 21 NNE 1031,6 50 0,0
13.12.2018 03:00:00 2,1 -0,5 20 11 39 21 NNE 1031,7 50 0,0
13.12.2018 02:00:00 2,3 0,4 21 11 38 20 NNE 1031,6 50 0,0
13.12.2018 01:00:00 2,4 0,8 18 10 34 19 NNE 1031,8 50 0,0
13.12.2018 00:00:00 2,2 0,3 18 10 34 19 NNE 1031,9 50 0,0
12.12.2018 23:00:00 2,0 0,4 18 10 35 19 N 1031,8 50 0,0
12.12.2018 22:00:00 1,9 0,4 19 10 35 19 N 1031,8 49 0,0
12.12.2018 21:00:00 1,6 0,1 20 11 34 18 N 1031,8 44 0,0
12.12.2018 20:00:00 1,5 0,2 18 10 32 17 N 1031,5 40 0,0
12.12.2018 19:00:00 1,3 -0,2 19 10 41 22 N 1031,2 45 0,0
12.12.2018 18:00:00 1,4 -0,1 21 11 41 22 N 1031,1 50 0,0
12.12.2018 17:00:00 1,8 -0,3 20 11 37 20 N 1030,9 50 0,0
12.12.2018 16:00:00 1,7 -0,4 23 12 37 20 N 1030,6 42 0,0
12.12.2018 15:00:00 1,4 -0,5 17 9 37 20 N 1030,3 29 0,0
12.12.2018 14:00:00 1,5 -0,6 18 10 38 20 N 1030,1 50 0,0
12.12.2018 13:00:00 1,5 -0,9 24 13 38 20 N 1030,0 50 0,0
12.12.2018 12:00:00 0,9 -1,3 21 11 35 19 N 1029,7 50 0,0
12.12.2018 11:00:00 0,8 -1,8 19 11 36 20 N 1029,7 50 0,0
12.12.2018 10:00:00 0,8 -1,9 22 12 46 25 N 1029,5 50 0,0
12.12.2018 09:00:00 1,1 -1,1 19 11 46 25 N 1029,2 50 0,0
12.12.2018 08:00:00 1,1 -1,8 22 12 39 21 N 1028,8 50 0,0
12.12.2018 07:00:00 1,2 -1,2 21 12 43 23 N 1028,2 48 0,0
12.12.2018 06:00:00 1,7 -1,2 24 13 43 23 N 1027,7 50 0,0
12.12.2018 05:00:00 2,0 -0,6 23 13 39 21 N 1027,2 50 0,0
12.12.2018 04:00:00 2,7 -0,1 18 10 41 22 NNE 1026,6 50 0,0
12.12.2018 03:00:00 3,2 1,4 22 12 43 23 NNE 1026,1 44 0,0
12.12.2018 02:00:00 3,9 1,4 23 12 43 23 NNE 1025,3 50 0,0
12.12.2018 01:00:00 3,7 2,1 20 11 33 18 N 1024,7 33 0,0
12.12.2018 00:00:00 3,7 2,2 19 10 33 18 N 1024,2 28 0,0
11.12.2018 23:00:00 3,2 1,9 16 9 31 17 N 1023,8 36 0,0
11.12.2018 22:00:00 3,6 2,1 17 9 32 17 N 1023,2 36 0,0
11.12.2018 21:00:00 3,3 2,0 17 9 34 18 N 1022,5 38 0,0
11.12.2018 20:00:00 3,5 2,2 20 11 34 18 N 1021,9 28 0,0

tt = Température de l'air
td = dewpoint
ff = Vitesse du vent
fx = gusts
dd = Direction du vent
ppp = reduced air pressure
vv = visibility
rr = Quantités de précipitations

stations d'obs. à proximité